Location: Newark
(44.9000°N, 9.6000°E)
Time: 00:30:20
(UTC+00:00)

ISS - Pass Details

Date: 24 January 2020
Orbit: 415 x 423 km, 51.6° (Epoch: 25 February)

Event Time Altitude Azimuth Distance (km) Brightness Sun altitude
Rises 17:18:31 0° 237° (WSW) 2,371 1.7 -10.8°
Reaches altitude 10° 17:20:36 10° 237° (WSW) 1,508 0.4 -11.2°
Maximum altitude 17:24:00 85° 152° (SSE) 429 -3.8 -11.8°
Enters shadow 17:26:13 20° 61° (ENE) 1,043 -2.4 -12.2°
